Date String (YYYY-MM-DD hh:mm:ss) UTC,Instrument flags,Ambient pressure (hPa),Sample flow (lpm),Bypass flow (lpm),Sample temperature (°C),Ambient temperature (°C),ASC tube jacket temperature (°C),LED temperature (°C),Box temperature (°C),Sample RH (%),Span deviation,Mass concentration (μg/m³),Mass concentration (μg/m³),Mass concentration (μg/m³)
DateTimeUTC,F1_M11,P_M11,Q1_M11,Q2_M11,T1_M11,T2_M11,T3_M11,T4_M11,T5_M11,U1_M11,ZSPAN_M11,X0_M11,X2_M11,X1_M11
2022-04-10 17:00:00,,0815.6,5.00,0.00,22.2,21.1,00.0,31.4,23.9,07.0,0000.0,0010.95,0004.34,0002.56
2022-04-10 17:01:00,,0815.9,5.00,0.00,22.2,21.1,00.0,31.4,23.8,07.3,0000.0,0010.31,0004.33,0002.56
2022-04-10 17:02:00,,0815.7,5.01,0.00,22.2,21.1,00.0,31.4,23.8,07.2,0000.0,0010.37,0004.35,0002.57
2022-04-10 17:03:00,,0815.6,5.01,0.00,22.2,21.1,00.0,31.3,23.8,07.4,0000.0,0010.24,0004.31,0002.58
2022-04-10 17:04:00,,0815.6,5.00,0.00,22.1,21.1,00.0,31.3,23.8,07.1,0000.0,0010.02,0004.27,0002.60
2022-04-10 17:05:00,,0815.9,5.00,0.00,22.1,21.1,00.0,31.3,23.8,06.6,0000.0,0009.87,0004.22,0002.61
2022-04-10 17:06:00,,0815.9,5.01,0.00,22.1,21.1,00.0,31.3,23.7,07.9,0000.0,0009.75,0004.20,0002.61
2022-04-10 17:07:00,,0815.7,5.00,0.00,22.1,21.1,00.0,31.3,23.7,09.0,0000.0,0009.75,0004.22,0002.61
2022-04-10 17:08:00,,0815.8,5.00,0.00,22.1,21.1,00.0,31.3,23.8,08.7,0000.0,0009.49,0004.19,0002.63
2022-04-10 17:09:00,,0815.8,5.01,0.00,22.1,21.1,00.0,31.3,23.7,08.4,0000.0,0009.84,0004.12,0002.61
2022-04-10 17:10:00,,0816.0,4.99,0.00,22.1,21.1,00.0,31.2,23.7,09.5,0000.0,0010.08,0004.18,0002.62
2022-04-10 17:11:00,,0815.2,5.01,0.00,22.1,21.1,00.0,31.2,23.8,09.0,0000.0,0010.12,0004.22,0002.62
2022-04-10 17:12:00,,0815.3,5.00,0.00,22.2,21.2,00.0,31.2,23.9,08.5,0000.0,0010.15,0004.21,0002.60
2022-04-10 17:13:00,,0816.0,4.99,0.00,22.1,21.1,00.0,31.2,23.9,08.3,0000.0,0010.19,0004.20,0002.59
2022-04-10 17:14:00,,0816.0,5.00,0.00,22.1,21.1,00.0,31.2,23.9,08.5,0000.0,0010.34,0004.22,0002.59
2022-04-10 17:15:00,,0816.0,5.00,0.00,22.2,21.1,00.0,31.2,23.9,08.8,0000.0,0010.72,0004.27,0002.56
2022-04-10 17:16:00,,0815.8,4.99,0.00,22.1,21.1,00.0,31.2,23.9,08.5,0000.0,0013.33,0004.36,0002.57
2022-04-10 17:17:00,,0815.5,5.01,0.00,22.1,21.1,00.0,31.2,23.9,08.5,0000.0,0014.07,0004.44,0002.57
2022-04-10 17:18:00,,0815.7,5.00,0.00,22.1,21.1,00.0,31.2,23.9,09.1,0000.0,0014.40,0004.39,0002.59
2022-04-10 17:19:00,,0816.0,5.00,0.00,22.1,21.1,00.0,31.2,23.9,08.9,0000.0,0014.87,0004.35,0002.56
2022-04-10 17:20:00,,0815.9,5.00,0.00,22.1,21.1,00.0,31.2,23.9,08.7,0000.0,0014.40,0004.33,0002.54
2022-04-10 17:21:00,,0815.3,5.00,0.00,22.1,21.1,00.0,31.2,23.9,09.2,0000.0,0013.98,0004.28,0002.55
2022-04-10 17:22:00,,0815.3,5.00,0.00,22.1,21.1,00.0,31.2,23.9,08.5,0000.0,0013.64,0004.19,0002.54
2022-04-10 17:23:00,,0815.2,5.00,0.00,22.1,21.1,00.0,31.2,23.9,08.6,0000.0,0013.49,0004.16,0002.54
2022-04-10 17:24:00,,0815.3,5.00,0.00,22.1,21.1,00.0,31.2,23.9,09.1,0000.0,0013.50,0004.15,0002.52
2022-04-10 17:25:00,,0815.3,5.00,0.00,22.1,21.1,00.0,31.2,23.8,09.2,0000.0,0013.40,0004.14,0002.51
2022-04-10 17:26:00,,0815.3,5.01,0.00,22.1,21.1,00.0,31.2,23.8,09.4,0000.0,0013.12,0004.11,0002.50
2022-04-10 17:27:00,,0815.2,5.01,0.00,22.1,21.1,00.0,31.1,23.8,08.5,0000.0,0010.61,0004.04,0002.48
2022-04-10 17:28:00,,0815.3,5.00,0.00,22.1,21.1,00.0,31.1,23.8,08.8,0000.0,0010.20,0004.03,0002.48
2022-04-10 17:29:00,,0815.2,4.99,0.00,22.1,21.1,00.0,31.2,23.8,09.2,0000.0,0010.06,0004.06,0002.46
2022-04-10 17:30:00,,0815.2,5.00,0.00,22.1,21.1,00.0,31.2,23.9,09.1,0000.0,0009.88,0004.03,0002.45
2022-04-10 17:31:00,,0815.2,5.00,0.00,22.1,21.1,00.0,31.2,23.8,08.9,0000.0,0010.15,0004.05,0002.46
2022-04-10 17:32:00,,0815.3,4.99,0.00,22.1,21.0,00.0,31.1,23.8,09.0,0000.0,0010.12,0004.01,0002.42
2022-04-10 17:33:00,,0815.3,5.00,0.00,22.1,21.0,00.0,31.2,23.9,08.8,0000.0,0010.04,0004.02,0002.42
2022-04-10 17:34:00,,0815.3,5.01,0.00,22.1,21.0,00.0,31.1,23.8,09.2,0000.0,0010.00,0004.04,0002.43
2022-04-10 17:35:00,,0815.3,5.00,0.00,22.1,21.1,00.0,31.1,23.9,08.9,0000.0,0009.92,0004.05,0002.44
2022-04-10 17:36:00,,0815.2,4.99,0.00,22.1,21.0,00.0,31.1,23.9,08.7,0000.0,0009.99,0004.05,0002.44
2022-04-10 17:37:00,,0815.3,5.00,0.00,22.1,21.1,00.0,31.1,23.8,09.1,0000.0,0010.56,0004.07,0002.42
2022-04-10 17:38:00,,0815.3,5.00,0.00,22.1,21.1,00.0,31.1,23.8,09.5,0000.0,0010.60,0004.04,0002.40
2022-04-10 17:39:00,,0815.5,4.99,0.00,22.1,21.1,00.0,31.1,23.8,09.1,0000.0,0010.36,0003.98,0002.38
2022-04-10 17:40:00,,0815.8,5.01,0.00,22.1,21.1,00.0,31.1,23.8,09.4,0000.0,0010.18,0003.96,0002.37
2022-04-10 17:41:00,,0815.5,5.00,0.00,22.1,21.1,00.0,31.1,23.8,09.2,0000.0,0009.74,0003.97,0002.38
2022-04-10 17:42:00,,0815.3,4.99,0.00,22.1,21.1,00.0,31.1,23.8,09.0,0000.0,0010.51,0004.01,0002.39
2022-04-10 17:43:00,,0815.2,5.02,0.00,22.0,21.1,00.0,31.1,23.8,09.4,0000.0,0010.99,0004.05,0002.43
2022-04-10 17:44:00,,0815.2,4.99,0.00,22.0,21.0,00.0,31.1,23.8,09.2,0000.0,0011.79,0004.13,0002.43
2022-04-10 17:45:00,,0815.3,5.00,0.00,22.0,21.0,00.0,31.1,23.8,08.9,0000.0,0012.38,0004.18,0002.41
2022-04-10 17:46:00,,0815.2,4.99,0.00,22.0,21.0,00.0,31.1,23.8,09.4,0000.0,0012.56,0004.22,0002.42
2022-04-10 17:47:00,,0815.3,5.00,0.00,22.0,21.0,00.0,31.1,23.8,09.7,0000.0,0012.53,0004.27,0002.44
2022-04-10 17:48:00,,0815.2,5.02,0.00,22.0,21.0,00.0,31.1,23.7,09.1,0000.0,0012.31,0004.29,0002.47
2022-04-10 17:49:00,,0815.3,5.00,0.00,22.0,20.9,00.0,31.1,23.7,09.0,0000.0,0012.49,0004.34,0002.50
2022-04-10 17:50:00,,0815.4,4.99,0.00,22.0,20.9,00.0,31.1,23.7,08.9,0000.0,0012.58,0004.36,0002.52
2022-04-10 17:51:00,,0815.2,5.01,0.00,22.0,20.9,00.0,31.1,23.8,09.0,0000.0,0012.81,0004.42,0002.54
2022-04-10 17:52:00,,0815.8,5.01,0.00,22.0,20.9,00.0,31.0,23.7,09.2,0000.0,0014.24,0004.49,0002.55
2022-04-10 17:53:00,,0815.7,4.99,0.00,22.0,20.9,00.0,31.0,23.8,09.5,0000.0,0013.64,0004.43,0002.53
2022-04-10 17:54:00,,0815.6,5.00,0.00,22.0,20.8,00.0,31.0,23.7,09.7,0000.0,0013.24,0004.41,0002.53
2022-04-10 17:55:00,,0815.9,4.99,0.00,22.0,20.8,00.0,31.0,23.7,09.0,0000.0,0012.83,0004.38,0002.52
2022-04-10 17:56:00,,0815.9,5.00,0.00,21.9,20.8,00.0,31.0,23.6,08.4,0000.0,0012.26,0004.36,0002.51
2022-04-10 17:57:00,,0815.8,5.01,0.00,21.9,20.8,00.0,31.0,23.6,08.9,0000.0,0012.40,0004.33,0002.50
2022-04-10 17:58:00,,0815.8,5.00,0.00,21.9,20.8,00.0,31.0,23.6,09.8,0000.0,0012.32,0004.28,0002.49
2022-04-10 17:59:00,,0815.8,5.00,0.00,21.9,20.8,00.0,31.0,23.6,10.0,0000.0,0012.00,0004.23,0002.47
